Header for Extended Forecast Station List Page

Search by: ID | Name | Date | Parm | Value | Avg | % Avg
Sort by: ID | Name | Date | Parm | Value | Avg | % Avg

Enter search or view all records.

Click on id for station plot
#IDNameDateParmValueAvg% Avg
0MAGI1BIG WOOD-MAGIC DAM03-30-2020INFLOW (KAF)9323739
1LWRI1LITTLE WOOD-LITTLE WOOD DAM03-30-2020INFLOW (KAF)377449
2MACI1BIG LOST-MACKAY RESERVOIR NEAR MACKAY03-30-2020INFLOW (KAF)8015352
3OWYO3OWYHEE-OWYHEE DAM03-30-2020INFLOW (KAF)16629456
4EMMI1PAYETTE-NEAR EMMETT03-30-2020DISCHARGE (KAF)673118157
5HWRI1BIG LOST-AT HOWELL RANCH NEAR CHILLY03-30-2020DISCHARGE (KAF)8915358
6HALI1BIG WOOD-AT HAILEY03-30-2020DISCHARGE (KAF)12922258
7ARAI1SF BOISE-ANDERSON RANCH DAM03-30-2020INFLOW (KAF)31249663
8WSRI1WEISER-NEAR WEISER03-30-2020DISCHARGE (KAF)24835869
9DEDI1DEADWOOD-NEAR LOWMAN03-30-2020INFLOW (KAF)9212872
10WHBI1SALMON-AT WHITEBIRD03-30-2020DISCHARGE (KAF)3963553972
11LEOI1KOOTENAI-AT LEONIA03-30-2020DISCHARGE (KAF)3722507373
12ANAW1SNAKE-NEAR ANATONE03-30-2020DISCHARGE (KAF)95871292774
13CSDI1NF PAYETTE-CASCADE DAM03-30-2020INFLOW (KAF)36147676
14PRWW1COLUMBIA-PRIEST RAPIDS DAM03-30-2020INFLOW (KAF)318024112577
15MCDW1COLUMBIA-MCNARY DAM03-30-2020INFLOW (KAF)483026263877
16JDAO3COLUMBIA-JOHN DAY DAM03-30-2020INFLOW (KAF)502256470578
17PITW1KLICKITAT-NEAR PITT03-30-2020DISCHARGE (KAF)36546778
18GCDW1COLUMBIA-GRAND COULEE DAM03-30-2020INFLOW (KAF)315663993379
19WANW1COLUMBIA-WANAPUM DAM03-30-2020INFLOW (KAF)318064034879
20BULO3BULLY CREEK-BULLY CREEK DAM03-30-2020INFLOW (KAF)3379
21LGDW1SNAKE-LOWER GRANITE DAM03-30-2020INFLOW (KAF)155591970479
22LGSW1SNAKE-LITTLE GOOSE DAM03-30-2020INFLOW (KAF)155591970379
23LMNW1SNAKE-LOWER MONUMENTAL DAM03-30-2020INFLOW (KAF)156261981679
24IHDW1SNAKE-ICE HARBOR DAM03-30-2020INFLOW (KAF)156271968379
25UNDW1WHITE SALMON-NEAR UNDERWOOD03-30-2020DISCHARGE (KAF)25131480
26LLKW1SPOKANE-AT LONGLAKE03-30-2020INFLOW (KAF)2438299981
27HOTI1BRUNEAU-NEAR HOT SPRINGS03-30-2020DISCHARGE (KAF)14417582
28STRM8ST. REGIS-NEAR ST. REGIS03-30-2020DISCHARGE (KAF)20424783
29SRGM8CLARK FORK-AT ST REGIS03-30-2020DISCHARGE (KAF)2899349483
30MYKO3MCKAY CREEK-NEAR PILOT ROCK03-30-2020DISCHARGE (KAF)172183
31PIHI1PORTNEUF-AT POCATELLO03-30-2020DISCHARGE (KAF)667984
32PARI1BOISE-NEAR PARMA03-30-2020DISCHARGE (KAF)35041385
33HODO3HOOD-NEAR TUCKER BRIDGE03-30-2020DISCHARGE (KAF)18421685
34BONO3COLUMBIA-BONNEVILLE DAM03-30-2020INFLOW (KAF)512466020485
35NOXM8CLARK FORK-NOXON RAPIDS DAM03-30-2020INFLOW (KAF)7527867587
36TDAO3COLUMBIA-THE DALLES DAM03-30-2020INFLOW (KAF)504455827387
37ALFW1PEND OREILLE-ALBENI FALLS DAM03-30-2020INFLOW (KAF)94731074388
38ARDW1ENTIAT-NEAR ARDENVOIR03-30-2020DISCHARGE (KAF)16719088
39PESW1WENATCHEE-AT PESHASTIN03-30-2020DISCHARGE (KAF)1214137788
40WEII1SNAKE-AT WEISER03-30-2020DISCHARGE (KAF)4199479788
41BRNI1SNAKE-BROWNLEE DAM03-30-2020INFLOW (KAF)4585519488
42DWRI1NF CLEARWATER-DWORSHAK DAM03-30-2020INFLOW (KAF)2303260588
43TONW1OKANOGAN-NEAR TONASKET03-30-2020DISCHARGE (KAF)1252140789
44WELW1COLUMBIA-WELLS DAM03-30-2020INFLOW (KAF)298383346089
45BIGI1BOISE-AT GLENWOOD BRIDGE03-30-2020DISCHARGE (KAF)38543489
46SPDI1CLEARWATER-AT SPALDING03-30-2020DISCHARGE (KAF)5972672389
47LYDM8KOOTENAI-LIBBY DAM03-30-2020INFLOW (KAF)4951551090
48BITM8BITTERROOT-NEAR MISSOULA03-30-2020DISCHARGE (KAF)1075119190
49CABI1CLARK FORK-CABINET GORGE DAM03-30-2020INFLOW (KAF)8275916690
50CHJW1COLUMBIA-CHIEF JOSEPH DAM03-30-2020INFLOW (KAF)278233082790
51RRHW1COLUMBIA-ROCKY REACH DAM03-30-2020INFLOW (KAF)304943397290
52DLGM8CLARK FORK-AT DEER LODGE03-30-2020DISCHARGE (KAF)728091
53RCCM8ROCK CREEK-NEAR CLINTON03-30-2020DISCHARGE (KAF)22724891
54BELM8CLARK FORK-BELOW MISSOULA03-30-2020DISCHARGE (KAF)2383261091
55KIOW1YAKIMA-AT KIONA03-30-2020DISCHARGE (KAF)76784691
56JLKW4SNAKE-JACKSON LAKE AT DAM03-30-2020INFLOW (KAF)67273691
57BERO3MALHEUR-AGENCY VALLEY DAM03-30-2020INFLOW (KAF)364091
58MODO3DESCHUTES-AT MOODY NR BIGGS03-30-2020DISCHARGE (KAF)1232136191
59PRTI1PRIEST-NEAR PRIEST RIVER03-30-2020DISCHARGE (KAF)70876592
60COEI1COEUR D ALENE-COEUR D ALENE LAKE03-30-2020INFLOW (KAF)2326252092
61CHDW1CHELAN-LAKE CHELAN DAM03-30-2020INFLOW (KAF)88695193
62SATI1ST MARIES-NEAR SANTA03-30-2020DISCHARGE (KAF)12112994
63PATW1METHOW-NEAR PATEROS03-30-2020DISCHARGE (KAF)76681894
64ABOM8CLARK FORK-ABOVE MISSOULA03-30-2020DISCHARGE (KAF)1308138195
65SERO3JOHN DAY-AT SERVICE CK03-30-2020DISCHARGE (KAF)71675595
66ANTI1HENRYS FORK-AT ST. ANTHONY03-30-2020DISCHARGE (KAF)58961396
67KADW1KACHESS-KACHESS DAM03-30-2020INFLOW (KAF)9810097
68REXI1HENRYS FORK-AT REXBURG03-30-2020DISCHARGE (KAF)69071397
69FCFM8NF FLATHEAD-NEAR COLUMBIA FALLS03-30-2020DISCHARGE (KAF)1520154498
70IPDI1HENRYS FORK-ISLAND PARK DAM03-30-2020INFLOW (KAF)19620098
71UMTW1YAKIMA-AT UMTANUM03-30-2020DISCHARGE (KAF)758755100
72CHEI1FALL RIVER-NEAR CHESTER03-30-2020DISCHARGE (KAF)317315101
73ORFI1CLEARWATER-AT OROFINO03-30-2020DISCHARGE (KAF)44894444101
74MONO3NF JOHN DAY-AT MONUMENT03-30-2020DISCHARGE (KAF)542536101
75BONM8BLACKFOOT-NEAR BONNER03-30-2020DISCHARGE (KAF)796777102
76TNAW1TEANAWAY-BELOW FORKS03-30-2020DISCHARGE (KAF)116114102
77HHWM8SF FLATHEAD-HUNGRY HORSE DAM03-30-2020INFLOW (KAF)19451880103
78KERM8FLATHEAD-KERR DAM03-30-2020INFLOW (KAF)52615079104
79KEDW1YAKIMA-KEECHELUS LAKE03-30-2020INFLOW (KAF)112108104
80CLUW1CLE ELUM-CLE ELUM LAKE03-30-2020INFLOW (KAF)380367104
81RILW1TIETON-RIMROCK LAKE NEAR RIMROCK03-30-2020INFLOW (KAF)197185106
82WGCM8MF FLATHEAD-NEAR WEST GLACIER03-30-2020DISCHARGE (KAF)16491508109
83PLDI1SF SNAKE-PALISADES DAM03-30-2020INFLOW (KAF)30562796109
84EASW1YAKIMA-AT EASTON03-30-2020DISCHARGE (KAF)10394110
85TEAI1TETON-NEAR ST. ANTHONY03-30-2020DISCHARGE (KAF)362329110
86SWAI1SNAKE-BELOW SWAN FALLS03-30-2020DISCHARGE (KAF)26152382110
87BUDW1BUMPING-BUMPING LAKE DAM03-30-2020INFLOW (KAF)122110111
88PARW1YAKIMA-NEAR PARKER03-30-2020DISCHARGE (KAF)524471111
89ALPW4SNAKE-NEAR ALPINE03-30-2020DISCHARGE (KAF)21451925111
90TRYO3GRANDE RONDE-TROY03-30-2020DISCHARGE (KAF)13381204111
91CLFW1NACHES-NEAR CLIFFDEL03-30-2020DISCHARGE (KAF)398349114
92CFMM8FLATHEAD-AT COLUMBIA FALLS03-30-2020DISCHARGE (KAF)46844061115
93JKSW4SNAKE-NEAR JACKSON03-30-2020DISCHARGE (KAF)17261480117
94GIBO3UMATILLA-NEAR GIBBON03-30-2020DISCHARGE (KAF)7866118
95WRMO3MALHEUR-WARM SPRINGS DAM03-30-2020INFLOW (KAF)4739121
96NACW1NACHES-NEAR NACHES03-30-2020DISCHARGE (KAF)575471122
97AFRI1SNAKE-AMERICAN FALLS RESERVOIR03-30-2020INFLOW (KAF)28542348122
98TCHW1WALLA WALLA-NEAR TOUCHET03-30-2020DISCHARGE (KAF)139113122
99PDTO3UMATILLA-AT PENDLETON03-30-2020DISCHARGE (KAF)159131122
100LAUW1KETTLE-AT LAURIER03-30-2020DISCHARGE (KAF)21181702124
101HEII1SNAKE-NEAR HEISE03-30-2020DISCHARGE (KAF)36572810130
102SIFI1SNAKE-AB EAGLE ROCK NR IDAHO FALLS03-30-2020DISCHARGE (KAF)31242379131
103SHYI1SNAKE-NEAR SHELLEY03-30-2020DISCHARGE (KAF)29172234131
104SNAI1SNAKE-AT BLACKFOOT03-30-2020DISCHARGE (KAF)24121804134
105RIDI1WILLOW CREEK-RIRIE DAM03-30-2020INFLOW (KAF)5742135
106BFTI1SNAKE-NEAR BLACKFOOT03-30-2020DISCHARGE (KAF)23641721137
107UMAO3UMATILLA-NEAR UMATILLA03-30-2020DISCHARGE (KAF)12983156
108MILI1SNAKE-AT MILNER03-30-2020DISCHARGE (KAF)988411240
109BFEI1KOOTENAI-AT BONNERS FERRY03-30-2020STAGE (FT)MMM
110DRMM8CLARK FORK-NR DRUMMOND03-30-2020DISCHARGE (KAF)234MM
111HOPI1PEND OREILLE-PEND OREILLE LAKE NR HOPE03-30-2020LAKE ELEVATION (FT)MMM
112SPOW1SPOKANE-AT SPOKANE03-30-2020DISCHARGE (KAF)2230MM
113SJMI1ST JOE-AT ST MARIES03-30-2020STAGE (FT)MMM
114CIBW1COLUMBIA-AT INTL BOUNDARY03-30-2020DISCHARGE (KAF)26944MM
115LUCI1BOISE-LUCKY PEAK DAM03-30-2020INFLOW (KAF)1128MM